Location: Charleston
(38.3500°N, 81.6330°W)
Time: 23:34:12
(UTC-04:00)

Daily predictions for brighter satellites

Satellite Brightness Start Highest point End
(mag) Time Altitude Azimuth Time Altitude Azimuth Time Altitude Azimuth
FENGYUN 3A 3.9 20:33:56 10° S 20:39:17 77° WSW 20:44:39 10° NNW
Cosmos 1733 Rocket 4.1 20:35:54 10° NNE 20:39:46 28° ENE 20:43:36 10° SE
Helios 1A 4.1 20:40:20 10° SE 20:43:56 28° ENE 20:47:34 10° N
USA 267 3.5 20:37:58 10° NE 20:44:31 79° NW 20:51:03 10° SW
Cosmos 1862 4.3 20:41:32 10° NNE 20:45:05 29° ENE 20:48:37 10° SE
Cosmos 1862 Rocket 4.3 20:44:22 10° SSE 20:48:25 34° E 20:52:29 10° NNE
Cosmos 1634 Rocket 4.1 20:51:45 10° S 20:58:03 85° W 21:04:25 10° N
Cosmos 1092 Rocket 4.4 20:53:11 10° NNW 20:59:30 70° W 21:05:47 10° S
Cosmos 2263 Rocket 2.4 20:54:09 10° NNW 20:59:36 53° ENE 21:05:03 10° SE
Spot 2 Rocket 3.6 20:56:55 10° SSE 21:02:01 85° WSW 21:07:07 10° NNW
Cosmos 1503 Rocket 4.1 20:58:23 10° NNW 21:03:39 83° WSW 21:08:50 10° SSE
Cosmos 968 Rocket 4.5 21:00:41 10° N 21:05:15 30° ENE 21:09:04 14° ESE
USA 186 1.4 21:03:29 10° SSE 21:06:15 74° ENE 21:09:14 10° N
SAR-Lupe-4 4.1 21:03:04 10° SE 21:06:26 41° ENE 21:09:51 10° N
Cosmos 1939 Rocket 3.8 21:03:23 12° SE 21:06:39 31° ENE 21:10:12 10° N
Cosmos 397 4.4 21:03:06 10° NNW 21:07:17 70° ENE 21:11:00 12° SE
Resurs 1-3 3.8 21:03:36 10° S 21:07:58 74° WSW 21:12:22 10° NNW
Cosmos 2322 Rocket 2.8 21:04:17 10° SW 21:09:48 61° WNW 21:15:23 10° NNE
Cosmos 1354 Rocket 4.3 21:04:55 10° NNW 21:10:11 72° WSW 21:15:23 10° S
Atlas Centaur 2 3.2 21:07:25 10° WSW 21:13:23 42° S 21:19:23 15° ESE
H-2A R/B 4.4 21:13:15 10° SSW 21:16:49 35° W 21:20:23 10° NNW
Cosmos 2360 Rocket 2.2 21:11:57 10° S 21:17:28 59° ESE 21:23:02 10° NNE
USA 234 4.0 21:12:08 12° E 21:17:49 42° NNE 21:23:53 10° NW
Cosmos 1825 2.5 21:14:24 10° NNW 21:18:11 68° W 21:21:58 10° S
COSMOS 2428 3.6 21:15:11 10° SSE 21:19:48 26° ESE 21:24:27 10° NE
Intercosmos 25 Rocket 3.5 21:17:35 10° SSW 21:20:46 66° W 21:24:55 10° N
Cosmos 1655 Rocket 4.0 21:15:25 10° N 21:21:50 83° E 21:28:11 10° S
Envisat 3.0 21:17:12 10° SSE 21:22:13 65° ENE 21:27:15 10° N
SAR-Lupe-1 4.1 21:21:02 16° SSE 21:23:45 60° ENE 21:27:17 10° N
Meteor 1-29 2.9 21:20:23 10° NNE 21:23:49 62° E 21:27:13 10° S
CZ-4B DEB 2.7 21:22:33 21° SSE 21:24:20 54° ENE 21:27:19 10° N
Lacrosse 4 Rocket 2.8 21:22:28 10° NW 21:26:32 39° WSW 21:30:38 10° S
Cosmos 1408 3.6 21:23:18 10° NNW 21:26:51 47° W 21:30:20 10° SSW
Cosmos 1867 3.9 21:22:03 10° NNW 21:27:24 53° NE 21:30:53 21° SE
Helios 1B rocket 2.4 21:23:29 10° NNE 21:27:36 89° E 21:31:42 10° SSW
Milstar 3 3.8 21:22:06 10° WSW 21:29:39 34° SSW 21:33:52 18° SE
H-2A R/B 4.0 21:28:43 10° ENE 21:29:52 11° ENE 21:31:01 10° NE
ATLAS 5 CENTAUR R/B 2.5 21:25:01 10° NNW 21:31:04 69° NE 21:35:40 20° SE
Cosmos 2221 Rocket 4.4 21:32:02 23° SE 21:33:34 29° E 21:37:25 10° NNE
Cosmos 2279 Rocket 4.2 21:28:14 10° SSW 21:34:27 75° W 21:40:42 10° N
Cosmos 2322 3.6 21:29:29 10° SSW 21:35:09 72° ESE 21:40:51 10° NNE
SEDSat Delta rocket 4.1 21:30:28 10° WSW 21:35:11 39° S 21:37:59 24° SE
ARGOS 4.4 21:37:29 20° E 21:39:27 24° ENE 21:43:41 10° NNE
Cosmos 489 Rocket 4.5 21:33:39 10° NNW 21:40:01 72° ENE 21:44:32 20° SSE
SL-16 R/B 4.0 21:35:32 10° SW 21:40:40 35° WNW 21:45:51 10° N
ERS-1 Rocket 3.3 21:42:02 26° SE 21:44:34 49° ENE 21:49:24 10° N
Sakura Rocket 4.3 21:43:41 10° SW 21:46:24 21° S 21:46:24 21° S
SeaSat 1 4.2 21:44:57 15° ENE 21:46:46 19° NE 21:50:07 10° N
Resurs 01 Rocket 4.0 21:45:40 10° SSW 21:49:07 22° W 21:52:36 10° NW
Centaur AC-42 4.3 21:33:26 10° W 21:49:26 24° SSW 21:53:32 15° S
Cosmos 2237 Rocket 4.1 21:58:35 13° ENE 21:58:35 13° ENE 21:59:50 10° ENE
Cosmos 2333 4.4 21:52:03 11° S 21:57:24 50° ESE 22:02:56 10° NNE
NOSS 3-1 (C) 3.7 21:54:38 21° SSE 21:57:54 38° ESE 22:03:33 10° NE
YAOGAN 6 2.4 21:58:12 48° SSE 21:59:08 82° ENE 22:02:44 10° N
Cosmos 2333 Rocket 3.3 22:00:04 25° E 22:00:04 25° E 22:03:54 10° NE
SPOT 5 3.5 21:59:59 32° E 22:00:50 35° ENE 22:05:02 10° N
Cosmos 1908 Rocket 3.5 21:56:35 10° N 22:00:56 83° W 22:02:59 31° S
Cosmos 1844 Rocket 3.4 21:55:57 10° N 22:01:05 37° ENE 22:02:44 30° E
Cosmos 2278 Rocket 3.9 21:58:26 10° NNE 22:02:03 17° NE 22:03:38 15° ENE
USA 229 DEB 3.8 21:57:07 10° SW 22:03:56 80° WNW 22:10:55 10° NNE
USA 229 3.8 21:57:14 10° SW 22:04:03 81° WNW 22:11:01 10° NNE
MetOp-A 4.3 22:04:25 37° SE 22:06:18 57° ENE 22:11:33 10° N
OAO 3 Rocket 3.9 22:02:17 10° W 22:06:48 38° SSW 22:07:40 35° S
Sich 1 Rocket 3.8 22:02:53 10° NNW 22:07:21 71° W 22:09:37 29° S
CZ-4C R/B 4.2 22:02:11 10° NNW 22:08:00 27° NE 22:11:50 18° E
Meteor 2-10 Rocket 4.5 22:08:25 10° SSW 22:14:05 54° WNW 22:19:46 10° N
NOSS 3-1 (A) 3.9 22:15:18 35° E 22:15:18 35° E 22:20:12 10° NE
Cosmos 1782 Rocket 3.4 22:11:10 10° N 22:15:34 82° E 22:16:24 58° SSE
SPOT 1/Viking Rocket 4.2 22:16:34 36° E 22:17:14 38° ENE 22:22:02 10° N
Cosmos 2219 Rocket 2.3 22:20:01 48° SE 22:20:34 49° ESE 22:25:58 10° NNE
Cosmos 1777 Rocket 3.9 22:15:23 10° NNW 22:20:40 72° ENE 22:21:49 53° SE
Okean 1-7 3.0 22:21:00 46° SSW 22:22:17 83° W 22:26:43 10° N
USA 245 4.2 22:21:28 49° ESE 22:22:38 60° ENE 22:27:25 10° N
Cosmos 1782 3.2 22:30:22 55° NNE 22:30:22 55° NNE 22:33:37 10° NNE
Okean 2 Rocket 2.9 22:26:07 10° N 22:30:40 85° E 22:30:55 79° SE
Cosmos 1633 4.5 22:37:37 10° N 22:39:16 22° NNE 22:39:16 22° NNE
Nimbus 7 Rocket 4.3 22:35:51 10° NNE 22:41:50 77° ESE 22:43:20 52° S
Cosmos 2263 Rocket 4.3 22:39:16 10° WNW 22:43:02 19° W 22:46:48 10° SW
Terra 3.1 22:45:02 28° NE 22:45:02 28° NE 22:48:19 10° N
Meteor 1-27 Rocket 4.1 22:46:37 48° ENE 22:46:37 48° ENE 22:51:23 10° NNE
Cosmos 1417 Rocket 4.4 22:58:13 67° S 22:59:07 84° E 23:05:30 10° N
USA 234 3.4 22:59:28 51° S 23:00:38 59° SW 23:07:06 10° NW
Atlas Centaur 2 3.3 22:55:47 10° WSW 23:02:01 43° SSW 23:02:01 43° SSW
Cosmos 1745 Rocket 4.2 22:56:43 10° N 23:02:51 54° ENE 23:02:51 54° ENE
COSMOS 2428 3.9 22:58:29 10° SW 23:03:48 40° WNW 23:09:11 10° N
Cosmos 2151 Rocket 4.3 23:00:34 10° N 23:03:59 52° NNW 23:03:59 52° NNW
H-2A R/B 2.1 23:09:09 70° NNW 23:09:09 70° NNW 23:13:32 10° NNW
MOS 1-B Rocket 4.2 23:09:36 51° SW 23:10:29 57° WSW 23:16:01 10° NNW
Cosmos 1980 3.8 23:13:33 65° NNE 23:13:33 65° NNE 23:18:21 10° NNE
Meteor 1-11 Rocket 3.8 23:08:44 10° N 23:13:39 67° NNE 23:13:39 67° NNE
ATLAS 5 CENTAUR R/B 4.2 23:10:55 10° WNW 23:15:24 21° WSW 23:17:15 18° SW
NOSS 0 Rocket 3.8 23:16:17 76° WSW 23:16:43 82° WNW 23:22:55 10° NNE
Cosmos 1844 3.8 23:11:07 10° NNW 23:16:28 67° W 23:16:28 67° W
SL-16 R/B 4.0 23:22:16 19° NE 23:22:16 19° NE 23:24:06 10° NE
ARGOS 4.0 23:19:00 40° WSW 23:19:25 41° W 23:24:29 10° NNW
SeaSat 1 3.1 23:24:45 51° WNW 23:24:45 51° WNW 23:28:44 10° NNW
DMSP B5D2-2 4.4 23:18:43 10° N 23:23:06 62° N 23:23:06 62° N
H-2A R/B 3.6 23:31:01 34° NNW 23:31:01 34° NNW 23:33:31 10° NNW
Cosmos 2237 Rocket 2.6 23:40:20 59° NW 23:40:20 59° NW 23:45:28 10° NNE
Cosmos 1553 Rocket 4.4 23:41:44 53° W 23:42:13 55° W 23:48:18 10° N
Cosmos 2333 Rocket 3.2 23:41:57 37° W 23:43:13 42° WNW 23:48:42 10° N
Cosmos 1844 Rocket 4.1 23:40:06 10° NW 23:44:25 28° W 23:44:25 28° W
Cosmos 2278 Rocket 2.8 23:41:04 10° NNW 23:45:29 54° NW 23:45:29 54° NW
